Weather History for Doha, Qatar

Change the Weather History Date:

Saturday, December 22, 2012

  Actual Average Record
Temperature  
Mean Temperature 74 °F -  
Max Temperature 83 °F 72 °F 87 °F (2005)
Min Temperature 65 °F 56 °F 55 °F (2006)
Cooling Degree Days 9    
Growing Degree Days 24 (Base 50)    
Moisture  
Dew Point 65 °F    
Average Humidity 78    
Maximum Humidity 94    
Minimum Humidity 39    
Precipitation  
Precipitation 0.00 in 0.02 in - ()
Sea Level Pressure  
Sea Level Pressure 30.03 in    
Wind  
Wind Speed 5 mph ()    
Max Wind Speed 12 mph    
Max Gust Speed -    
Visibility 4.0 miles    
Events Fog    
Averages and records for this station are not official NWS values.
T = Trace of Precipitation, MM = Missing Value Source: Averaged Metar Reports

Daily Weather History Graph

Daily Weather History Graph

Search for Another Location

Airport:

Trip Planner

Search our weather history database for the weather conditions in past years. The results will help you decide how hot, cold, wet, or windy it might be!

Date:

Astronomy

Dec. 22, 2012 Rise Set
Actual Time 6:15 AM AST 4:49 PM AST
Civil Twilight 5:50 AM AST 5:14 PM AST
Nautical Twilight 5:21 AM AST 5:43 PM AST
Astronomical Twilight 4:53 AM AST 6:11 PM AST
Moon 12:36 PM AST (12/22) 12:58 AM AST (12/22)
Length of Visible Light 11h 24m
Length of Day
10h 34m
Waxing Gibbous, 70% of the Moon is Illuminated
Dec 22
Waxing Gibbous
Dec 28
Full
Jan 5
Last Quarter
Jan 11
New
Jan 19
First Quarter

Hourly Weather History & Observations

Time (AST) Temp. Heat Index Dew Point Humidity Pressure Visibility Wind Dir Wind Speed Gust Speed Precip Events Conditions
12:00 AM 69.8 °F - 66.2 °F 88% 30.01 in 5.0 mi ESE 5.8 mph - N/A   Unknown
12:30 AM 71.6 °F - 66.2 °F 83% 30.01 in 4.3 mi ESE 5.8 mph - N/A   Unknown
1:00 AM 69.8 °F - 66.2 °F 88% 30.01 in 4.3 mi SE 3.5 mph - N/A   Unknown
1:30 AM 69.8 °F - 66.2 °F 88% 30.01 in 5.0 mi SSE 9.2 mph - N/A   Unknown
2:00 AM 68.0 °F - 66.2 °F 94% 29.98 in 3.7 mi Variable 2.3 mph - N/A   Unknown
2:30 AM 68.0 °F - 66.2 °F 94% 29.98 in 3.7 mi Variable 2.3 mph - N/A   Unknown
3:00 AM 69 °F - 66 °F 89% 30.00 in 4 mi SSE 3.5 mph - -   Haze
3:00 AM 69.8 °F - 66.2 °F 88% 29.98 in 3.7 mi SSE 3.5 mph - N/A   Unknown
4:00 AM 68.0 °F - 66.2 °F 94% 29.98 in 3.1 mi Variable 2.3 mph - N/A   Mist
4:30 AM 68.0 °F - 66.2 °F 94% 29.98 in 2.5 mi SSW 3.5 mph - N/A   Mist
5:00 AM 68.0 °F - 66.2 °F 94% 30.01 in 0.6 mi SSW 3.5 mph - N/A Fog Fog
6:00 AM 66.2 °F - 64.4 °F 94% 30.01 in 0.6 mi SW 3.5 mph - N/A Fog Fog
6:30 AM 66.2 °F - 64.4 °F 94% 30.04 in 1.9 mi SW 4.6 mph - N/A   Mist
7:00 AM 66.2 °F - 64.4 °F 94% 30.04 in 3.1 mi SW 4.6 mph - N/A   Haze
7:30 AM 66.2 °F - 64.4 °F 94% 30.06 in 0.3 mi Variable 2.3 mph - N/A Fog Fog
8:00 AM 69.8 °F - 66.2 °F 88% 30.06 in 3.1 mi SW 4.6 mph - N/A   Haze
8:30 AM 71.6 °F - 68.0 °F 88% 30.06 in 4.3 mi SW 4.6 mph - N/A   Unknown
9:00 AM 73 °F - 67 °F 76% 30.10 in 5 mi SSW 5.8 mph - -   Haze
9:00 AM 73.4 °F - 66.2 °F 78% 30.09 in 5.0 mi SSW 5.8 mph - N/A   Unknown
9:30 AM 75.2 °F - 66.2 °F 73% 30.09 in - SSW 5.8 mph - N/A   Clear
10:00 AM 77.0 °F - 64.4 °F 65% 30.06 in - SSW 6.9 mph - N/A   Clear
10:30 AM 78.8 °F - 62.6 °F 57% 30.06 in - SSW 5.8 mph - N/A   Clear
11:00 AM 80.6 °F 81.1 °F 59.0 °F 48% 30.06 in - South 5.8 mph - N/A   Clear
11:30 AM 80.6 °F 81.5 °F 60.8 °F 51% 30.04 in - South 6.9 mph - N/A   Clear
12:00 PM 82.4 °F 81.7 °F 55.4 °F 39% 30.04 in - South 6.9 mph - N/A   Clear
1:00 PM 82.4 °F 82.9 °F 60.8 °F 48% 30.01 in - SE 6.9 mph - N/A   Clear
2:00 PM 80.6 °F 81.8 °F 62.6 °F 54% 29.98 in 6.2 mi ESE 9.2 mph - N/A   Partly Cloudy
2:30 PM 78.8 °F - 62.6 °F 57% 29.98 in - NE 8.1 mph - N/A   Clear
3:00 PM 78 °F - 62 °F 49% 30.00 in 7 mi NNE 8.1 mph - -   Scattered Clouds
3:00 PM 77.0 °F - 62.6 °F 61% 29.98 in - NNE 8.1 mph - N/A   Clear
3:30 PM 77.0 °F - 64.4 °F 65% 29.98 in - North 11.5 mph - N/A   Clear
4:00 PM 77.0 °F - 66.2 °F 69% 30.01 in - North 11.5 mph - N/A   Clear
4:30 PM 73.4 °F - 68.0 °F 83% 30.01 in - North 10.4 mph - N/A   Clear
5:00 PM 73.4 °F - 66.2 °F 78% 30.01 in 5.0 mi North 9.2 mph - N/A   Unknown
5:30 PM 73.4 °F - 66.2 °F 78% 30.01 in 5.0 mi North 10.4 mph - N/A   Unknown
6:00 PM 73.4 °F - 66.2 °F 78% 30.04 in - North 9.2 mph - N/A   Clear
7:00 PM 73.4 °F - 66.2 °F 78% 30.04 in - North 9.2 mph - N/A   Clear
7:30 PM 73.4 °F - 66.2 °F 78% 30.06 in - North 8.1 mph - N/A   Clear
8:00 PM 71.6 °F - 66.2 °F 83% 30.06 in - North 5.8 mph - N/A   Clear
8:30 PM 71.6 °F - 66.2 °F 83% 30.06 in 5.0 mi North 5.8 mph - N/A   Unknown
9:00 PM 72 °F - 66 °F 77% 30.08 in 5 mi North 5.8 mph - -   Haze
9:00 PM 71.6 °F - 66.2 °F 83% 30.06 in 5.0 mi North 5.8 mph - N/A   Unknown
9:30 PM 71.6 °F - 68.0 °F 88% 30.06 in 5.0 mi North 5.8 mph - N/A   Unknown
10:00 PM 71.6 °F - 68.0 °F 88% 30.06 in 4.3 mi North 4.6 mph - N/A   Unknown
11:00 PM 71.6 °F - 68.0 °F 88% 30.06 in 4.3 mi North 3.5 mph - N/A   Unknown
11:30 PM 71.6 °F - 68.0 °F 88% 30.06 in 3.7 mi North 3.5 mph - N/A   Unknown